TimeCDT,TemperatureF,Dew PointF,Humidity,Sea Level PressureIn,VisibilityMPH,Wind Direction,Wind SpeedMPH,Gust SpeedMPH,PrecipitationIn,Events,Conditions,WindDirDegrees,DateUTC
12:53 AM,75.9,72.0,87,29.95,10.0,Calm,Calm,-,N/A,,Clear,0,2013-09-04 05:53:00
1:53 AM,75.9,73.9,94,29.96,10.0,Calm,Calm,-,N/A,,Clear,0,2013-09-04 06:53:00
2:53 AM,75.0,72.0,90,29.96,10.0,Calm,Calm,-,N/A,,Clear,0,2013-09-04 07:53:00
3:53 AM,75.9,72.0,87,29.96,10.0,Calm,Calm,-,N/A,,Clear,0,2013-09-04 08:53:00
4:53 AM,75.0,71.1,87,29.97,10.0,Calm,Calm,-,N/A,,Clear,0,2013-09-04 09:53:00
5:53 AM,75.0,72.0,90,29.98,10.0,Calm,Calm,-,N/A,,Clear,0,2013-09-04 10:53:00
6:53 AM,75.0,73.0,94,30.00,8.0,Calm,Calm,-,N/A,,Clear,0,2013-09-04 11:53:00
7:53 AM,77.0,73.0,88,30.02,10.0,Calm,Calm,-,N/A,,Clear,0,2013-09-04 12:53:00
8:53 AM,82.0,73.0,74,30.04,10.0,Calm,Calm,-,N/A,,Clear,0,2013-09-04 13:53:00
9:53 AM,88.0,73.9,63,30.06,10.0,Calm,Calm,-,N/A,,Clear,0,2013-09-04 14:53:00
10:53 AM,89.1,73.0,59,30.06,10.0,Calm,Calm,-,N/A,,Clear,0,2013-09-04 15:53:00
11:53 AM,91.9,73.9,55,30.04,10.0,SE,3.5,-,N/A,,Clear,140,2013-09-04 16:53:00
12:53 PM,91.0,73.0,55,30.03,10.0,SE,4.6,-,N/A,,Clear,130,2013-09-04 17:53:00
1:53 PM,93.0,73.0,52,30.01,10.0,Variable,3.5,-,N/A,,Mostly Cloudy,0,2013-09-04 18:53:00
2:53 PM,93.0,73.9,54,29.99,10.0,Variable,5.8,-,N/A,,Clear,0,2013-09-04 19:53:00
3:53 PM,93.9,73.0,51,29.98,10.0,Calm,Calm,-,N/A,,Clear,0,2013-09-04 20:53:00
4:48 PM,87.8,71.6,58,29.98,10.0,South,9.2,-,N/A,Thunderstorm,Scattered Clouds,190,2013-09-04 21:48:00
4:53 PM,86.0,73.0,65,29.98,10.0,South,10.4,-,N/A,Thunderstorm,Scattered Clouds,170,2013-09-04 21:53:00
5:53 PM,82.0,75.0,79,29.99,10.0,South,8.1,-,0.00,,Clear,170,2013-09-04 22:53:00
6:32 PM,82.4,73.4,74,30.01,10.0,Calm,Calm,-,N/A,Thunderstorm,Clear,0,2013-09-04 23:32:00
6:53 PM,82.0,73.9,76,30.02,10.0,ENE,3.5,-,N/A,,Scattered Clouds,70,2013-09-04 23:53:00
7:53 PM,79.0,71.1,77,30.01,10.0,Calm,Calm,-,N/A,,Clear,0,2013-09-05 00:53:00
8:53 PM,78.1,73.0,84,30.03,10.0,Calm,Calm,-,N/A,,Partly Cloudy,0,2013-09-05 01:53:00
9:53 PM,78.1,73.9,87,30.04,10.0,Calm,Calm,-,N/A,,Clear,0,2013-09-05 02:53:00
10:53 PM,78.1,73.0,84,30.05,10.0,Calm,Calm,-,N/A,,Clear,0,2013-09-05 03:53:00
11:53 PM,77.0,73.9,90,30.04,10.0,Calm,Calm,-,N/A,,Clear,0,2013-09-05 04:53:00